Regional Weather Roundup
Issued by NWS Charleston, WV

Home | Current Version | Previous Version | Text Only | Print | Product List | Glossary Off
Versions: 1 2 3 4 5 6 7 8 9 10 11 12 13 14 15 16 17 18 19 20 21 22 23 24 25 26 27 28 29 30 31 32 33 34 35 36 37 38 39 40 41 42 43 44 45 46 47 48 49 50

000
ASUS41 KRLX 011810
RWRRLX
West Virginia Regional Weather Roundup
National Weather Service Charleston WV
200 PM EDT SAT AUG 01 2015

Note: "fair" indicates few or no clouds below 12,000 feet with no
significant weather and/or obstructions to visibility.

WVZ003-011900-
Northern Panhandle of West Virginia

CITY           SKY/WX    TMP DP  RH WIND       PRES   REMARKS
WHEELING       MOSUNNY   81  52  36 VRB6G17   29.95F
$$

WVZ009-011900-
Northwest West Virginia

CITY           SKY/WX    TMP DP  RH WIND       PRES   REMARKS
PARKERSBURG    MOSUNNY   83  51  33 NW8       29.99F
$$

WVZ006-011900-
Western West Virginia

CITY           SKY/WX    TMP DP  RH WIND       PRES   REMARKS
HUNTINGTON     MOSUNNY   83  53  35 VRB7      29.99F
$$

WVZ015-011900-
West Central West Virginia

CITY           SKY/WX    TMP DP  RH WIND       PRES   REMARKS
CHARLESTON     MOSUNNY   83  54  36 NW9       29.99F
$$

WVZ022-031-011900-
North Central West Virginia

CITY           SKY/WX    TMP DP  RH WIND       PRES   REMARKS
CLARKSBURG     MOSUNNY   78  54  43 W8        29.97F
MORGANTOWN     PTSUNNY   84  51  31 W8        29.96F
$$

WVZ025-035-042-045-011900-
Southern West Virginia

CITY           SKY/WX    TMP DP  RH WIND       PRES   REMARKS
BECKLEY        MOSUNNY   77  53  43 NW8       30.06F
LOGAN            N/A     79  59  50 CALM      29.99F
BLUEFIELD      MOSUNNY   79  54  41 W12       30.09F
LEWISBURG      PTSUNNY   80  52  37 W8        30.03F
$$

WVZ047-011900-
Northern Mountains of West Virginia

CITY           SKY/WX    TMP DP  RH WIND       PRES   REMARKS
ELKINS         MOSUNNY   77  53  43 NW7       30.01F
$$

WVZ052-011900-
Eastern Panhandle of West Virginia

CITY           SKY/WX    TMP DP  RH WIND       PRES   REMARKS
MARTINSBURG    MOSUNNY   85  57  38 SW10G17   29.89F
PETERSBURG     PTSUNNY  N/A N/A N/A W7G17     29.94F
$$


USA.gov is the U.S. government's official web portal to all federal, state and local government web resources and services.